Temperature
27 27 27 28 29 29 29 30 30 31 32 31 30 30 30 29 29 29 28 28 26 24 22 22 21 19 18 18 16 15 15 16 16 16 16 16 16 16 16 15 15 15 15 14
27 27 28 29 30 30 30 29 29 31 32 31 29 29 29 28 28 27 27 26 25 23 21 20 19 17 17 16 15 15 15 15 15 15 15 15 15 15 15 15 14 13 13 13
26 28 29 29 29 29 29 29 29 29 31 30 29 28 28 27 26 26 25 25 23 22 20 18 17 16 16 15 15 14 14 14 14 14 14 14 14 14 14 13 13 12 12 12
28 29 29 29 29 29 28 29 29 29 29 29 29 27 27 26 25 25 25 23 21 20 18 17 16 15 15 14 14 14 14 13 13 14 14 13 13 13 12 12 12 12 12 12
27 29 29 29 29 29 28 30 29 29 28 28 29 28 27 25 24 24 23 22 20 18 17 16 15 14 14 13 13 13 13 13 13 13 13 13 13 13 12 12 12 11 11 11
28 30 30 29 30 29 29 29 29 29 28 26 27 27 26 25 23 22 22 20 19 18 17 16 15 14 13 13 12 12 13 13 13 13 13 13 12 12 11 11 10 10 9 9
27 28 30 30 29 29 29 27 26 25 25 26 28 28 27 26 24 23 21 20 19 18 17 16 15 14 13 12 12 12 11 11 11 11 11 11 10 10 9 9 8 8 8 8
26 26 28 29 28 28 27 27 25 24 25 26 27 25 24 26 24 22 20 20 19 18 17 16 15 14 13 12 12 11 10 10 10 9 9 8 8 8 7 7 7 6 6 6
26 27 29 29 29 28 27 27 27 26 26 25 26 23 21 23 22 21 20 19 19 18 17 16 15 14 13 12 11 11 10 10 9 9 8 8 8 7 6 6 6 5 5 5
27 26 28 29 29 28 28 28 27 26 24 24 26 25 22 21 21 20 20 19 18 17 16 15 14 13 13 12 11 10 10 9 9 8 8 7 7 6 6 5 5 5 4 4
28 26 26 28 27 27 27 27 26 26 26 25 24 24 24 21 21 20 20 19 18 17 16 15 14 13 13 12 11 10 10 9 8 7 7 6 6 5 5 5 4 4 4 4
27 26 25 26 28 28 27 27 26 24 24 25 25 22 24 22 21 20 19 18 18 17 16 15 14 13 12 11 10 10 9 8 7 6 6 5 5 5 5 4 4 4 4 4
24 23 23 24 26 27 27 27 27 26 25 24 24 22 24 22 20 19 18 18 17 16 15 14 13 12 11 10 10 9 8 7 6 6 5 5 5 4 4 4 4 4 3 3
23 22 22 22 24 26 25 26 26 26 24 24 24 21 22 21 20 19 18 17 16 14 14 13 12 11 10 10 9 8 7 6 5 5 4 4 4 4 4 4 4 3 3 3
23 22 22 23 24 25 25 24 23 23 24 24 24 20 20 20 19 18 17 16 15 14 14 13 11 10 9 9 7 6 6 5 4 4 4 4 4 4 4 4 3 3 3 3
22 21 21 22 23 24 24 23 22 22 22 23 22 19 20 19 17 17 16 16 15 15 13 12 10 9 8 7 6 5 4 4 4 4 4 4 4 4 4 4 4 3 3 3
19 20 20 20 22 23 22 23 23 23 22 22 19 18 19 18 17 16 16 15 15 13 12 11 9 8 7 5 4 4 3 4 4 4 4 4 4 4 4 4 3 3 3 3
19 18 18 19 20 19 22 23 23 22 20 21 19 18 18 17 16 15 15 14 13 11 10 9 8 7 6 4 4 3 4 4 5 5 5 5 4 4 4 4 4 3 3 3
19 18 16 16 18 20 20 21 22 20 18 19 18 18 17 15 14 13 12 11 10 9 8 7 6 6 5 4 4 4 5 5 5 5 5 5 4 4 4 4 4 3 3 3
19 18 16 14 15 17 19 20 20 19 17 18 18 17 16 15 14 12 11 10 9 8 7 6 5 5 4 4 4 4 5 5 5 5 5 5 4 4 4 4 4 3 3 3
15 16 15 14 14 14 17 17 18 16 16 17 17 16 15 14 13 11 10 9 8 6 5 5 5 4 4 4 4 5 5 5 5 5 5 5 5 5 5 4 4 3 3 3
10 12 15 16 14 11 15 17 16 16 16 16 15 14 12 11 11 10 9 8 7 6 5 4 4 4 4 4 5 5 5 5 5 5 5 5 5 5 5 5 4 4 3 3
8 10 13 14 13 13 15 16 16 16 15 15 14 13 12 11 11 10 9 8 7 5 5 4 5 5 5 5 5 5 5 5 5 6 6 6 6 6 5 5 5 4 3 2
8 10 11 12 13 13 14 14 15 15 14 13 13 12 12 11 10 9 8 7 6 5 5 5 5 6 6 6 6 6 6 6 6 6 6 6 6 6 5 5 5 4 3 2
9 10 11 11 12 13 13 14 14 13 13 13 12 12 11 11 10 9 8 6 5 5 5 5 6 6 6 6 7 6 6 6 6 6 6 6 6 5 5 5 4 4 3 1
12 12 12 11 13 13 13 13 13 13 12 12 12 11 10 10 9 8 6 5 5 5 5 5 6 6 6 7 7 6 6 6 6 6 5 6 6 5 5 5 4 3 1 -0
Wind_Speed
15 15 17 19 20 20 21 22 20 14 9 9 9 10 3 4 2 3 3 9 14 17 17 17 16 15 15 18 15 10 5 3 2 3 1 1 1 2 2 3 7 7 8 10
18 21 21 21 20 22 23 21 17 14 9 6 7 8 6 4 3 5 6 9 10 14 17 18 19 19 17 15 11 9 8 6 7 6 4 3 4 4 6 6 9 12 10 9
23 21 22 22 21 21 16 15 17 17 15 11 11 12 10 9 7 5 6 9 12 14 17 18 18 18 17 16 13 11 10 9 9 8 6 5 5 5 6 7 6 7 7 6
22 22 24 19 21 18 15 17 19 18 18 14 15 15 15 15 12 10 10 13 16 17 18 16 16 16 17 17 16 15 14 13 12 11 10 10 8 6 5 4 2 5 7 9
21 22 22 20 16 15 18 18 19 19 17 18 17 17 14 19 17 13 13 16 18 18 17 16 16 15 15 15 15 15 14 13 13 13 13 11 10 8 6 7 7 8 7 10
22 21 19 20 17 18 19 19 16 13 13 19 20 18 14 20 21 18 16 17 18 18 18 17 16 15 15 15 14 14 13 12 12 12 11 11 10 10 9 8 8 8 8 8
22 21 20 16 17 20 18 14 10 13 15 18 18 19 7 23 26 23 21 19 18 18 17 17 16 15 14 13 13 12 11 9 9 9 8 8 8 9 9 9 9 10 10 9
21 17 21 18 18 15 15 17 16 15 16 16 14 7 8 16 22 22 20 19 18 17 17 17 15 13 12 11 10 9 8 7 7 7 6 6 6 7 9 9 10 11 10 10
20 18 18 22 20 19 18 18 20 19 21 17 7 10 11 15 19 20 19 19 17 17 16 15 13 12 11 9 8 7 6 6 7 7 6 6 8 8 9 9 9 10 10 11
21 21 18 13 18 21 21 18 12 17 17 18 18 14 15 20 20 19 19 18 17 16 15 13 11 10 7 6 7 5 6 6 6 7 8 9 9 9 9 10 9 9 10 10
22 21 23 18 19 19 17 18 17 15 16 18 17 6 16 23 21 19 18 17 17 15 13 11 10 8 7 6 7 7 7 7 8 9 8 8 9 9 10 9 9 9 9 9
14 16 20 24 19 19 20 20 18 15 16 15 15 4 12 20 19 17 17 17 15 14 12 11 9 8 8 7 7 7 8 8 9 9 8 8 8 8 9 9 9 9 9 9
10 9 14 20 20 18 19 20 18 16 14 15 17 6 10 20 19 17 17 17 14 11 11 10 8 6 6 6 7 8 8 8 9 9 8 7 8 8 9 9 9 8 8 8
5 13 18 21 19 19 20 21 20 19 16 17 18 10 14 18 19 19 18 16 13 10 7 5 6 7 6 7 8 10 9 9 9 9 9 8 8 8 9 8 8 7 7 7
10 17 22 24 25 25 18 15 19 22 22 20 12 16 18 16 17 18 16 14 12 8 7 7 7 6 6 8 9 10 10 9 9 9 9 8 8 8 8 7 7 7 7 9
10 17 21 26 27 27 24 14 17 19 21 19 5 17 17 20 18 16 15 12 10 8 8 8 6 6 8 9 9 10 9 8 8 9 9 9 7 8 7 6 6 7 7 8
15 14 21 24 27 26 25 17 19 16 13 10 8 15 21 21 19 16 13 10 9 9 9 7 7 8 7 8 8 8 8 7 7 8 9 8 7 7 7 9 8 8 8 8
18 16 13 21 25 29 19 10 13 2 11 10 21 24 21 20 18 14 11 11 12 11 9 8 7 7 6 6 5 5 7 8 7 6 7 7 7 8 7 7 8 8 7 8
18 17 12 15 24 28 11 4 5 9 13 18 24 22 22 22 19 15 14 14 12 11 9 7 5 4 4 4 4 7 8 6 7 8 7 8 8 9 9 8 8 8 7 8
22 17 12 13 17 20 11 6 5 13 10 17 21 21 21 18 13 11 12 13 12 10 7 5 3 3 3 3 5 7 7 6 7 8 7 6 6 7 9 6 7 7 6 7
17 21 19 18 13 3 2 10 11 8 10 17 19 18 15 12 12 14 14 12 10 9 6 4 3 3 2 2 4 7 7 7 7 8 8 8 6 6 6 5 6 6 6 7
6 12 21 16 8 3 7 13 10 9 17 19 19 20 20 19 17 15 13 12 9 8 5 3 3 2 1 1 4 7 7 7 8 8 8 8 7 7 7 6 5 4 5 7
3 6 5 2 4 9 2 9 13 18 20 21 21 20 18 17 15 13 12 10 8 7 4 3 3 2 1 2 4 7 7 7 8 8 8 8 8 5 4 5 5 5 5 7
3 4 3 8 12 15 14 14 13 17 20 21 20 18 17 16 14 12 10 9 8 6 5 4 3 2 2 3 4 4 5 7 8 8 9 8 6 7 7 6 5 6 8 10
3 2 4 13 15 17 16 15 17 19 20 19 18 18 17 14 13 11 9 9 7 6 5 3 3 3 4 4 4 6 6 6 7 7 7 11 8 9 7 8 8 10 11 10
4 2 4 8 12 16 19 18 20 19 19 19 18 17 15 13 11 11 10 8 7 7 5 3 2 3 4 5 6 6 6 7 8 8 8 9 7 7 8 8 9 14 11 10
Wind_Direction
218 224 230 231 232 241 255 269 283 277 235 202 212 244 209 78 9 320 37 70 81 78 67 67 78 90 98 112 133 157 142 89 78 69 72 122 96 44 41 51 60 44 25 16
231 231 235 241 241 242 247 259 270 278 270 215 230 221 144 111 87 47 70 77 72 76 70 66 68 73 81 93 108 107 86 47 33 34 28 21 20 14 26 33 32 19 8 356
229 239 234 236 248 252 250 259 264 266 262 208 217 222 177 145 135 127 110 94 81 76 76 70 64 65 72 79 83 88 83 59 39 28 28 30 25 20 22 22 24 349 319 326
241 246 251 247 239 241 243 248 255 261 266 246 212 230 186 154 146 139 124 109 95 85 81 78 74 72 73 76 77 77 73 62 49 45 41 41 35 25 24 4 8 321 334 350
243 246 247 246 241 248 250 250 259 252 249 263 249 237 181 155 151 134 119 108 103 100 97 94 90 87 84 81 77 72 66 58 51 47 44 41 34 21 10 357 352 350 345 339
252 255 244 244 233 240 248 249 257 262 251 246 247 251 190 170 153 141 132 121 116 114 110 105 100 94 88 83 79 72 65 57 50 44 38 32 21 3 348 343 341 345 334 319
244 247 251 243 236 231 235 243 236 236 240 248 243 248 211 158 152 151 143 135 129 125 119 111 102 94 87 81 77 73 66 58 51 45 34 20 8 337 333 348 345 333 318 315
240 232 235 227 234 233 217 235 241 242 242 241 246 260 84 134 143 140 140 137 134 126 115 109 104 100 93 83 75 68 61 50 36 29 22 357 356 345 341 345 331 318 319 329
258 254 226 218 216 231 230 220 237 254 265 273 244 128 154 142 138 142 146 143 135 121 116 114 108 101 95 91 75 57 47 35 25 6 3 352 2 350 338 333 328 334 336 326
253 272 283 249 215 213 234 246 243 239 252 261 264 199 167 162 158 158 155 146 131 126 121 115 111 102 94 96 96 62 44 22 12 359 1 352 354 349 345 340 343 338 332 327
237 250 263 257 220 224 219 236 253 261 252 252 260 258 148 169 165 162 157 144 138 137 132 127 120 113 102 67 48 34 22 10 4 358 2 3 359 354 346 341 338 333 326 323
277 256 247 249 247 225 234 233 232 244 255 259 266 132 162 162 155 156 155 146 141 136 131 120 105 88 67 45 25 19 5 359 358 356 5 11 356 349 340 336 330 326 326 324
329 303 263 247 248 239 231 240 240 236 241 248 255 158 149 146 150 151 146 133 123 114 99 93 82 67 48 20 10 3 356 3 359 356 357 358 345 337 327 322 321 323 325 325
277 279 269 259 255 251 233 236 242 245 243 241 248 147 151 152 147 140 132 126 124 113 107 107 95 65 26 9 11 357 356 6 356 345 340 336 330 325 319 321 324 331 339 338
255 261 264 267 269 268 262 243 257 266 262 254 234 148 159 147 139 133 131 131 130 143 146 111 77 38 10 14 8 358 2 1 344 331 333 333 327 325 328 334 338 346 344 339
255 246 257 263 263 264 265 242 235 253 267 276 132 134 146 131 130 134 139 145 150 139 107 84 56 28 27 16 3 359 352 341 335 330 326 323 333 334 338 338 346 346 339 336
294 258 243 250 255 261 255 254 252 242 223 229 155 138 135 134 138 140 141 141 127 101 83 62 44 40 33 22 10 348 329 323 318 310 311 321 337 336 347 345 344 338 333 331
267 267 257 249 246 247 250 257 272 232 99 102 120 136 135 131 124 114 108 99 87 78 67 56 38 25 32 25 0 324 309 306 316 331 347 351 350 347 342 331 334 331 328 327
253 246 246 248 244 240 210 186 213 136 125 124 125 128 125 121 112 97 85 85 83 80 72 60 32 17 42 16 341 313 310 339 7 11 3 359 351 337 322 329 334 331 331 330
250 239 232 244 248 240 194 149 101 114 133 135 131 131 133 140 140 125 108 100 94 88 75 48 8 29 54 9 333 322 329 3 360 352 344 330 322 312 312 332 334 333 330 335
262 240 229 236 244 278 170 144 123 141 156 137 130 127 120 102 104 116 110 102 99 98 81 25 23 63 59 349 324 321 328 346 337 329 317 303 300 296 307 327 316 323 340 344
297 263 237 231 209 191 218 162 158 143 133 131 123 112 106 106 110 116 114 111 109 106 84 61 86 108 169 277 302 305 322 331 323 313 305 303 297 297 310 304 306 332 6 358
266 280 274 244 137 140 115 77 100 118 122 120 116 116 117 119 120 116 109 104 98 93 92 112 120 126 165 278 294 312 327 329 321 312 309 306 304 299 314 317 334 350 13 12
304 329 102 99 118 120 110 107 107 110 112 113 115 120 122 120 116 110 105 98 96 101 121 137 118 73 29 333 311 312 340 340 337 340 344 329 327 8 346 335 1 11 26 25
291 335 91 117 121 116 118 119 117 112 112 114 115 112 110 109 107 107 103 100 109 124 126 103 56 18 353 325 347 13 7 346 346 342 355 334 357 20 349 14 45 62 67 67
3 52 99 128 136 130 127 125 122 119 116 112 106 102 100 100 98 100 103 114 129 133 131 105 53 7 351 22 34 29 11 3 1 354 7 343 8 9 1 15 68 79 104 104
Height
1489 1492 1491 1485 1481 1480 1479 1477 1475 1465 1459 1466 1476 1482 1483 1487 1489 1491 1492 1495 1500 1505 1509 1512 1514 1517 1520 1520 1522 1526 1531 1533 1534 1534 1534 1534 1534 1533 1532 1532 1532 1532 1532 1533
1487 1486 1480 1476 1474 1473 1474 1477 1475 1468 1462 1468 1478 1482 1484 1489 1492 1495 1497 1500 1504 1507 1511 1514 1517 1519 1521 1522 1525 1527 1529 1532 1533 1533 1533 1533 1533 1532 1531 1530 1530 1529 1529 1530
1482 1476 1471 1472 1473 1472 1473 1477 1477 1473 1465 1466 1478 1484 1485 1489 1495 1499 1501 1503 1507 1510 1514 1516 1517 1519 1521 1523 1526 1528 1529 1531 1531 1531 1531 1531 1531 1530 1530 1530 1528 1528 1527 1527
1472 1468 1466 1465 1467 1468 1477 1472 1471 1471 1474 1473 1475 1490 1484 1488 1495 1500 1503 1506 1510 1514 1517 1519 1521 1522 1523 1524 1526 1527 1528 1529 1529 1529 1529 1530 1530 1530 1530 1529 1529 1528 1527 1526
1467 1463 1463 1465 1465 1466 1470 1465 1465 1465 1471 1475 1469 1479 1481 1486 1496 1502 1506 1509 1514 1517 1520 1523 1525 1526 1526 1527 1527 1527 1528 1528 1529 1529 1530 1530 1530 1530 1529 1528 1527 1525 1524 1523
1460 1457 1456 1457 1458 1462 1463 1464 1464 1465 1470 1484 1474 1475 1478 1482 1492 1501 1508 1512 1516 1519 1523 1525 1528 1529 1530 1531 1530 1530 1530 1530 1531 1531 1531 1531 1530 1529 1528 1526 1524 1522 1520 1519
1462 1456 1452 1452 1457 1459 1461 1472 1485 1490 1488 1482 1463 1468 1467 1471 1484 1495 1504 1511 1515 1519 1522 1526 1529 1532 1533 1534 1534 1534 1533 1533 1532 1532 1531 1530 1529 1528 1527 1525 1522 1519 1516 1515
1463 1462 1451 1449 1455 1457 1462 1469 1486 1494 1488 1476 1464 1475 1482 1476 1486 1496 1504 1509 1514 1517 1521 1525 1530 1533 1535 1536 1537 1536 1535 1535 1534 1533 1531 1530 1528 1526 1524 1522 1519 1516 1513 1509
1458 1453 1440 1442 1446 1452 1458 1463 1462 1472 1473 1477 1472 1486 1493 1486 1493 1499 1504 1509 1512 1516 1521 1525 1530 1533 1536 1537 1538 1538 1537 1535 1533 1532 1530 1529 1526 1524 1521 1517 1514 1511 1507 1504
1450 1455 1444 1440 1443 1447 1451 1453 1459 1470 1483 1485 1471 1471 1485 1489 1495 1500 1504 1507 1512 1517 1522 1527 1531 1534 1537 1538 1538 1537 1536 1535 1533 1531 1528 1526 1523 1520 1516 1513 1510 1507 1503 1500
1441 1452 1449 1442 1447 1449 1450 1455 1459 1460 1461 1475 1480 1475 1468 1481 1489 1497 1503 1507 1512 1517 1522 1527 1531 1534 1536 1538 1538 1537 1536 1534 1532 1529 1525 1522 1519 1516 1513 1510 1507 1504 1501 1497
1439 1443 1448 1443 1436 1437 1442 1447 1454 1469 1468 1463 1469 1486 1467 1476 1485 1494 1501 1507 1513 1518 1523 1527 1530 1533 1535 1537 1537 1536 1534 1532 1530 1527 1523 1519 1516 1513 1510 1508 1505 1502 1499 1496
1450 1452 1457 1454 1447 1438 1442 1442 1443 1449 1458 1465 1471 1479 1466 1476 1485 1494 1501 1508 1515 1520 1524 1527 1530 1533 1535 1536 1536 1535 1533 1530 1527 1524 1520 1517 1514 1511 1509 1506 1503 1500 1497 1494
1453 1456 1461 1462 1450 1440 1442 1442 1442 1447 1455 1459 1459 1471 1472 1479 1485 1494 1503 1510 1516 1522 1525 1528 1530 1533 1534 1535 1534 1532 1530 1527 1524 1521 1518 1516 1513 1510 1508 1505 1502 1499 1496 1493
1451 1456 1453 1448 1441 1437 1438 1445 1449 1451 1448 1451 1453 1466 1472 1480 1488 1496 1504 1511 1517 1522 1526 1528 1531 1533 1533 1533 1532 1530 1527 1524 1521 1519 1517 1515 1512 1510 1507 1504 1501 1498 1495 1492
1447 1452 1453 1451 1442 1439 1439 1442 1451 1452 1453 1452 1455 1468 1470 1481 1491 1499 1506 1512 1517 1521 1525 1528 1530 1532 1532 1531 1529 1527 1525 1522 1520 1518 1516 1514 1512 1509 1507 1504 1501 1497 1494 1490
1454 1451 1456 1455 1446 1443 1445 1442 1444 1444 1447 1454 1464 1473 1475 1484 1493 1501 1507 1513 1517 1521 1525 1528 1530 1531 1530 1529 1527 1525 1523 1522 1520 1518 1516 1514 1512 1509 1507 1504 1500 1496 1493 1489
1453 1455 1456 1455 1453 1459 1442 1436 1438 1441 1450 1454 1459 1472 1479 1488 1496 1504 1509 1514 1518 1522 1526 1528 1530 1530 1529 1527 1525 1524 1523 1521 1520 1518 1516 1514 1512 1509 1506 1503 1499 1495 1491 1488
1446 1450 1458 1461 1454 1443 1439 1437 1438 1447 1459 1459 1465 1474 1484 1492 1499 1507 1512 1516 1520 1524 1527 1528 1529 1529 1528 1526 1525 1524 1523 1522 1521 1519 1516 1514 1512 1509 1505 1502 1498 1494 1490 1487
1441 1442 1453 1460 1458 1449 1438 1438 1441 1451 1465 1463 1467 1476 1485 1492 1499 1511 1515 1519 1522 1525 1526 1527 1528 1527 1526 1526 1525 1525 1524 1523 1521 1519 1517 1514 1511 1508 1504 1501 1497 1493 1489 1486
1449 1442 1444 1452 1454 1451 1443 1443 1446 1466 1471 1468 1474 1481 1488 1495 1500 1511 1516 1520 1523 1525 1526 1526 1526 1526 1526 1526 1525 1525 1525 1523 1521 1519 1516 1513 1510 1506 1503 1500 1496 1492 1488 1485
1464 1453 1441 1440 1452 1466 1452 1450 1453 1460 1464 1471 1478 1486 1494 1500 1507 1513 1517 1521 1524 1525 1525 1525 1526 1526 1526 1526 1526 1526 1524 1523 1520 1517 1514 1511 1508 1504 1501 1498 1494 1491 1487 1483
1463 1458 1446 1442 1449 1454 1454 1453 1457 1462 1468 1475 1482 1490 1497 1503 1509 1514 1518 1522 1524 1525 1525 1526 1527 1527 1527 1527 1526 1526 1524 1522 1519 1516 1513 1510 1506 1503 1500 1497 1493 1490 1486 1482
1462 1454 1450 1451 1454 1455 1459 1465 1472 1475 1478 1482 1488 1494 1500 1506 1511 1516 1519 1522 1524 1525 1526 1527 1528 1528 1528 1527 1527 1525 1524 1521 1519 1515 1512 1509 1506 1502 1500 1496 1492 1489 1485 1481
1461 1455 1450 1452 1457 1459 1466 1474 1480 1483 1486 1489 1493 1497 1502 1508 1513 1517 1520 1522 1524 1525 1527 1528 1529 1529 1528 1527 1527 1526 1524 1521 1518 1515 1512 1509 1506 1503 1499 1495 1491 1487 1484 1481
1458 1457 1456 1458 1459 1462 1471 1479 1484 1488 1491 1494 1496 1501 1506 1511 1515 1518 1520 1523 1524 1527 1528 1529 1530 1529 1528 1528 1527 1526 1524 1521 1518 1516 1512 1510 1507 1503 1500 1496 1491 1487 1485 1482